Time,TemperatureF,DewpointF,PressureIn,WindDirection,WindDirectionDegrees,WindSpeedMPH,WindSpeedGustMPH,Humidity,HourlyPrecipIn,Conditions,Clouds,dailyrainin,SolarRadiationWatts/m^2,SoftwareType,DateUTC
2013-03-25 10:00:00,47.8,45.9,30.03,NW,311,1.0,1.0,93,0.00,,,0.00,503,Wunderground v.1.15,2013-03-25 17:00:00,
2013-03-25 10:02:00,48.1,46.2,30.02,NW,310,1.0,2.0,93,0.00,,,0.00,536,Wunderground v.1.15,2013-03-25 17:02:00,
2013-03-25 10:08:00,48.9,46.4,30.03,NW,309,1.0,2.0,91,0.00,,,0.00,343,Wunderground v.1.15,2013-03-25 17:08:00,
2013-03-25 10:14:00,49.8,46.4,30.03,SSW,198,1.0,3.0,88,0.00,,,0.00,610,Wunderground v.1.15,2013-03-25 17:14:00,
2013-03-25 10:20:00,50.8,46.5,30.03,SSW,202,1.0,1.0,85,0.00,,,0.00,510,Wunderground v.1.15,2013-03-25 17:20:00,
2013-03-25 10:22:00,50.9,46.2,30.03,SSW,202,1.0,2.0,84,0.00,,,0.00,512,Wunderground v.1.15,2013-03-25 17:22:00,
2013-03-25 10:28:00,52.3,46.3,30.03,SSW,196,0.0,2.0,80,0.00,,,0.00,438,Wunderground v.1.15,2013-03-25 17:28:00,
2013-03-25 10:34:00,53.0,46.0,30.03,East,100,0.0,3.0,77,0.00,,,0.00,499,Wunderground v.1.15,2013-03-25 17:34:00,
2013-03-25 10:40:00,53.8,45.7,30.03,ESE,122,1.0,2.0,74,0.00,,,0.00,603,Wunderground v.1.15,2013-03-25 17:40:00,
2013-03-25 10:46:00,54.4,45.9,30.03,ESE,118,1.0,2.0,73,0.00,,,0.00,659,Wunderground v.1.15,2013-03-25 17:46:00,
2013-03-25 10:52:00,55.2,45.6,30.03,ENE,64,1.0,2.0,70,0.00,,,0.00,698,Wunderground v.1.15,2013-03-25 17:52:00,
2013-03-25 10:58:00,55.4,45.8,30.03,NNE,18,1.0,2.0,70,0.00,,,0.00,608,Wunderground v.1.15,2013-03-25 17:58:00,
2013-03-25 11:04:00,55.8,45.8,30.02,ENE,61,1.0,4.0,69,0.00,,,0.00,619,Wunderground v.1.15,2013-03-25 18:04:00,
2013-03-25 11:10:00,56.0,45.6,30.02,ESE,119,2.0,4.0,68,0.00,,,0.00,554,Wunderground v.1.15,2013-03-25 18:10:00,
2013-03-25 11:16:00,55.9,45.9,30.03,SSW,202,2.0,4.0,69,0.00,,,0.00,622,Wunderground v.1.15,2013-03-25 18:16:00,
2013-03-25 11:22:00,56.3,46.3,30.03,SSW,200,1.0,4.0,69,0.00,,,0.00,729,Wunderground v.1.15,2013-03-25 18:22:00,
2013-03-25 11:28:00,56.9,46.1,30.03,SW,215,2.0,4.0,67,0.00,,,0.00,527,Wunderground v.1.15,2013-03-25 18:28:00,
2013-03-25 11:34:00,56.8,45.6,30.03,SSW,205,4.0,6.0,66,0.00,,,0.00,701,Wunderground v.1.15,2013-03-25 18:34:00,
2013-03-25 11:40:00,56.6,46.2,30.03,WNW,283,4.0,4.0,68,0.00,,,0.00,621,Wunderground v.1.15,2013-03-25 18:40:00,
2013-03-25 11:46:00,56.6,46.9,30.02,WNW,290,3.0,5.0,70,0.00,,,0.00,714,Wunderground v.1.15,2013-03-25 18:46:00,
2013-03-25 11:52:00,56.5,46.4,30.02,WNW,289,3.0,4.0,69,0.00,,,0.00,751,Wunderground v.1.15,2013-03-25 18:52:00,
2013-03-25 11:58:00,56.4,46.7,30.02,NW,324,3.0,4.0,70,0.00,,,0.00,517,Wunderground v.1.15,2013-03-25 18:58:00,
2013-03-25 12:04:00,56.3,46.6,30.02,WNW,296,3.0,11.0,70,0.00,,,0.00,649,Wunderground v.1.15,2013-03-25 19:04:00,
2013-03-25 12:10:00,56.2,46.5,30.02,West,277,4.0,11.0,70,0.00,,,0.00,536,Wunderground v.1.15,2013-03-25 19:10:00,
2013-03-25 12:16:00,56.2,46.5,30.02,West,269,3.0,11.0,70,0.00,,,0.00,721,Wunderground v.1.15,2013-03-25 19:16:00,
2013-03-25 12:22:00,56.7,46.6,30.02,West,268,3.0,11.0,69,0.00,,,0.00,654,Wunderground v.1.15,2013-03-25 19:22:00,
2013-03-25 12:28:00,57.1,46.6,30.02,WSW,255,3.0,11.0,68,0.00,,,0.00,696,Wunderground v.1.15,2013-03-25 19:28:00,
2013-03-25 12:34:00,57.5,46.2,30.02,West,264,3.0,11.0,66,0.00,,,0.00,548,Wunderground v.1.15,2013-03-25 19:34:00,
2013-03-25 12:40:00,57.8,46.5,30.02,West,273,3.0,3.0,66,0.00,,,0.00,594,Wunderground v.1.15,2013-03-25 19:40:00,
2013-03-25 12:46:00,57.9,46.2,30.02,NW,308,4.0,11.0,65,0.00,,,0.00,691,Wunderground v.1.15,2013-03-25 19:46:00,
2013-03-25 12:52:00,58.0,45.9,30.02,West,262,4.0,11.0,64,0.00,,,0.00,533,Wunderground v.1.15,2013-03-25 19:52:00,
2013-03-25 12:58:00,58.0,45.5,30.02,WSW,243,3.0,11.0,63,0.00,,,0.00,875,Wunderground v.1.15,2013-03-25 19:58:00,
2013-03-25 13:04:00,57.8,45.3,30.01,SW,222,4.0,11.0,63,0.00,,,0.00,671,Wunderground v.1.15,2013-03-25 20:04:00,
2013-03-25 13:10:00,58.0,45.0,30.01,SSW,202,3.0,11.0,62,0.00,,,0.00,557,Wunderground v.1.15,2013-03-25 20:10:00,
2013-03-25 13:18:00,58.4,45.4,30.01,West,259,3.0,11.0,62,0.00,,,0.00,895,Wunderground v.1.15,2013-03-25 20:18:00,
2013-03-25 13:24:00,59.0,45.6,30.01,SW,236,2.0,11.0,61,0.00,,,0.00,911,Wunderground v.1.15,2013-03-25 20:24:00,
2013-03-25 13:30:00,59.9,45.5,30.01,NW,323,2.0,11.0,59,0.00,,,0.00,944,Wunderground v.1.15,2013-03-25 20:30:00,
2013-03-25 13:36:00,60.3,44.5,30.00,NW,305,3.0,11.0,56,0.00,,,0.00,780,Wunderground v.1.15,2013-03-25 20:36:00,
2013-03-25 13:42:00,60.8,44.5,30.00,NW,313,2.0,11.0,55,0.00,,,0.00,858,Wunderground v.1.15,2013-03-25 20:42:00,
2013-03-25 13:48:00,61.1,44.3,29.99,NNW,329,1.0,11.0,54,0.00,,,0.00,947,Wunderground v.1.15,2013-03-25 20:48:00,
2013-03-25 13:54:00,61.4,44.6,29.99,SSW,211,3.0,11.0,54,0.00,,,0.00,895,Wunderground v.1.15,2013-03-25 20:54:00,
2013-03-25 14:00:00,61.1,44.8,29.99,WSW,251,5.0,5.0,55,0.00,,,0.00,462,Wunderground v.1.15,2013-03-25 21:00:00,
2013-03-25 14:06:00,60.9,45.1,30.00,WSW,253,5.0,9.0,56,0.00,,,0.00,571,Wunderground v.1.15,2013-03-25 21:06:00,
2013-03-25 14:12:00,60.1,45.7,29.99,SW,225,5.0,9.0,59,0.00,,,0.00,561,Wunderground v.1.15,2013-03-25 21:12:00,
2013-03-25 14:18:00,59.6,45.7,29.99,SW,230,5.0,9.0,60,0.00,,,0.00,517,Wunderground v.1.15,2013-03-25 21:18:00,
2013-03-25 14:24:00,59.1,45.7,29.99,SE,142,5.0,11.0,61,0.00,,,0.00,519,Wunderground v.1.15,2013-03-25 21:24:00,
2013-03-25 14:30:00,58.9,45.9,29.99,SW,228,5.0,5.0,62,0.00,,,0.00,649,Wunderground v.1.15,2013-03-25 21:30:00,
2013-03-25 14:36:00,59.2,46.2,29.98,SW,217,4.0,9.0,62,0.00,,,0.00,812,Wunderground v.1.15,2013-03-25 21:36:00,
2013-03-25 14:42:00,59.5,46.0,29.99,West,275,5.0,9.0,61,0.00,,,0.00,680,Wunderground v.1.15,2013-03-25 21:42:00,
2013-03-25 14:48:00,59.7,46.7,29.98,SSW,204,5.0,9.0,62,0.00,,,0.00,621,Wunderground v.1.15,2013-03-25 21:48:00,
2013-03-25 14:54:00,59.5,45.6,29.98,SSW,209,5.0,9.0,60,0.00,,,0.00,575,Wunderground v.1.15,2013-03-25 21:54:00,
2013-03-25 15:00:00,59.0,45.6,29.98,SW,219,5.0,5.0,61,0.00,,,0.00,362,Wunderground v.1.15,2013-03-25 22:00:00,
2013-03-25 15:08:00,57.6,45.1,29.98,SSW,203,6.0,14.0,63,0.00,,,0.00,332,Wunderground v.1.15,2013-03-25 22:08:00,
2013-03-25 15:14:00,56.7,44.7,29.98,SW,231,5.0,14.0,64,0.00,,,0.00,336,Wunderground v.1.15,2013-03-25 22:14:00,
2013-03-25 15:20:00,55.9,44.3,29.99,WSW,250,6.0,14.0,65,0.00,,,0.00,341,Wunderground v.1.15,2013-03-25 22:20:00,
2013-03-25 15:26:00,55.0,44.2,29.99,WSW,239,7.0,14.0,67,0.00,,,0.00,366,Wunderground v.1.15,2013-03-25 22:26:00,
2013-03-25 15:32:00,54.5,44.2,29.99,West,281,6.0,14.0,68,0.00,,,0.00,320,Wunderground v.1.15,2013-03-25 22:32:00,
2013-03-25 15:38:00,54.5,44.2,30.00,WSW,240,4.0,14.0,68,0.00,,,0.00,392,Wunderground v.1.15,2013-03-25 22:38:00,
2013-03-25 15:44:00,54.1,43.4,29.99,SSW,211,4.0,14.0,67,0.00,,,0.00,496,Wunderground v.1.15,2013-03-25 22:44:00,
2013-03-25 15:50:00,53.9,43.6,30.00,WSW,257,5.0,5.0,68,0.00,,,0.00,587,Wunderground v.1.15,2013-03-25 22:50:00,
2013-03-25 15:56:00,54.1,43.4,29.99,SSW,194,5.0,14.0,67,0.00,,,0.00,554,Wunderground v.1.15,2013-03-25 22:56:00,
2013-03-25 16:02:00,54.2,43.5,29.99,WSW,254,5.0,21.0,67,0.00,,,0.00,404,Wunderground v.1.15,2013-03-25 23:02:00,
2013-03-25 16:08:00,54.4,43.7,29.99,South,186,4.0,21.0,67,0.00,,,0.00,454,Wunderground v.1.15,2013-03-25 23:08:00,
2013-03-25 16:14:00,54.3,43.2,29.98,SSW,208,5.0,21.0,66,0.00,,,0.00,308,Wunderground v.1.15,2013-03-25 23:14:00,
2013-03-25 16:19:00,54.3,43.6,29.98,WSW,245,3.0,3.0,67,0.00,,,0.00,315,Wunderground v.1.15,2013-03-25 23:19:00,
2013-03-25 16:26:00,54.4,43.3,29.98,WSW,242,2.0,21.0,66,0.00,,,0.00,318,Wunderground v.1.15,2013-03-25 23:26:00,
2013-03-25 16:32:00,54.5,43.4,29.98,WSW,240,3.0,21.0,66,0.00,,,0.00,269,Wunderground v.1.15,2013-03-25 23:32:00,
2013-03-25 16:38:00,55.2,43.6,29.98,SW,226,3.0,21.0,65,0.00,,,0.00,635,Wunderground v.1.15,2013-03-25 23:38:00,
2013-03-25 16:44:00,56.0,43.6,29.97,SW,218,3.0,21.0,63,0.00,,,0.00,596,Wunderground v.1.15,2013-03-25 23:44:00,
2013-03-25 16:50:00,56.7,43.4,29.97,SSW,205,3.0,3.0,61,0.00,,,0.00,520,Wunderground v.1.15,2013-03-25 23:50:00,
2013-03-25 16:58:00,57.5,43.3,29.97,West,271,2.0,21.0,59,0.00,,,0.00,471,Wunderground v.1.15,2013-03-25 23:58:00,
2013-03-25 17:04:00,57.6,42.9,29.96,SW,232,3.0,14.0,58,0.00,,,0.00,446,Wunderground v.1.15,2013-03-26 00:04:00,
2013-03-25 17:10:00,57.7,43.9,29.95,West,263,3.0,3.0,60,0.00,,,0.00,424,Wunderground v.1.15,2013-03-26 00:10:00,
2013-03-25 17:18:00,57.6,44.7,29.96,WSW,241,3.0,14.0,62,0.00,,,0.00,401,Wunderground v.1.15,2013-03-26 00:18:00,
2013-03-25 17:24:00,57.3,44.8,29.96,WSW,245,4.0,14.0,63,0.00,,,0.00,396,Wunderground v.1.15,2013-03-26 00:24:00,
2013-03-25 17:30:00,56.9,44.4,29.96,SW,223,4.0,4.0,63,0.00,,,0.00,267,Wunderground v.1.15,2013-03-26 00:30:00,
2013-03-25 17:36:00,56.2,44.6,29.97,South,187,4.0,14.0,65,0.00,,,0.00,408,Wunderground v.1.15,2013-03-26 00:36:00,
2013-03-25 17:42:00,55.9,44.3,29.96,SSW,211,4.0,14.0,65,0.00,,,0.00,144,Wunderground v.1.15,2013-03-26 00:42:00,
2013-03-25 17:48:00,55.0,44.2,29.97,SW,215,4.0,14.0,67,0.00,,,0.00,132,Wunderground v.1.15,2013-03-26 00:48:00,
2013-03-25 17:54:00,53.9,43.6,29.97,SW,219,6.0,14.0,68,0.00,,,0.00,162,Wunderground v.1.15,2013-03-26 00:54:00,
2013-03-25 18:00:00,53.0,43.5,29.96,WSW,254,6.0,6.0,70,0.00,,,0.00,111,Wunderground v.1.15,2013-03-26 01:00:00,
2013-03-25 18:06:00,52.5,43.4,29.97,West,259,5.0,15.0,71,0.00,,,0.00,107,Wunderground v.1.15,2013-03-26 01:06:00,
2013-03-25 18:12:00,52.2,43.4,29.97,SW,227,5.0,15.0,72,0.00,,,0.00,104,Wunderground v.1.15,2013-03-26 01:12:00,
2013-03-25 18:18:00,52.1,43.3,29.96,SW,218,3.0,15.0,72,0.00,,,0.00,95,Wunderground v.1.15,2013-03-26 01:18:00,
2013-03-25 18:24:00,51.9,43.2,29.96,SSW,208,3.0,15.0,72,0.00,,,0.00,67,Wunderground v.1.15,2013-03-26 01:24:00,
2013-03-25 18:30:00,51.8,43.1,29.97,WNW,301,3.0,3.0,72,0.00,,,0.00,69,Wunderground v.1.15,2013-03-26 01:30:00,
2013-03-25 18:38:00,51.5,42.8,29.96,SW,217,2.0,15.0,72,0.00,,,0.00,51,Wunderground v.1.15,2013-03-26 01:38:00,
2013-03-25 18:44:00,51.3,42.9,29.97,WSW,248,2.0,15.0,73,0.00,,,0.00,42,Wunderground v.1.15,2013-03-26 01:44:00,
2013-03-25 18:50:00,51.2,43.2,29.97,WSW,250,2.0,15.0,74,0.00,,,0.00,35,Wunderground v.1.15,2013-03-26 01:50:00,
2013-03-25 18:56:00,50.6,42.6,29.97,West,275,5.0,15.0,74,0.00,,,0.00,23,Wunderground v.1.15,2013-03-26 01:56:00,
2013-03-25 19:02:00,50.1,42.5,29.98,SSW,209,5.0,11.0,75,0.00,,,0.00,16,Wunderground v.1.15,2013-03-26 02:02:00,
2013-03-25 19:08:00,49.6,42.3,29.98,SSW,206,5.0,11.0,76,0.00,,,0.00,11,Wunderground v.1.15,2013-03-26 02:08:00,
2013-03-25 19:14:00,49.2,42.3,29.98,SSW,196,5.0,11.0,77,0.00,,,0.00,7,Wunderground v.1.15,2013-03-26 02:14:00,
2013-03-25 19:20:00,48.8,42.2,29.98,SW,215,6.0,6.0,78,0.00,,,0.00,0,Wunderground v.1.15,2013-03-26 02:20:00,
2013-03-25 19:26:00,48.6,42.0,29.98,West,262,5.0,11.0,78,0.00,,,0.00,0,Wunderground v.1.15,2013-03-26 02:26:00,
2013-03-25 19:32:00,48.4,42.2,29.98,West,265,3.0,11.0,79,0.00,,,0.00,0,Wunderground v.1.15,2013-03-26 02:32:00,
2013-03-25 19:38:00,48.3,42.4,29.99,NNW,329,2.0,11.0,80,0.00,,,0.00,0,Wunderground v.1.15,2013-03-26 02:38:00,
2013-03-25 19:44:00,48.3,42.4,29.99,NNW,327,2.0,11.0,80,0.00,,,0.00,0,Wunderground v.1.15,2013-03-26 02:44:00,
2013-03-25 19:50:00,48.3,42.4,29.99,NNW,327,1.0,1.0,80,0.00,,,0.00,0,Wunderground v.1.15,2013-03-26 02:50:00,
2013-03-25 19:55:00,48.3,42.4,29.98,NNW,327,0.0,11.0,80,0.00,,,0.00,0,Wunderground v.1.15,2013-03-26 02:55:00,
2013-03-25 20:01:00,48.3,42.4,29.98,NNW,327,0.0,17.0,80,0.00,,,0.00,0,Wunderground v.1.15,2013-03-26 03:01:00,
2013-03-25 20:07:00,48.3,42.4,29.98,NNW,327,0.0,17.0,80,0.00,,,0.00,0,Wunderground v.1.15,2013-03-26 03:07:00,
2013-03-25 20:14:00,48.3,42.4,29.97,NNW,327,0.0,17.0,80,0.00,,,0.00,0,Wunderground v.1.15,2013-03-26 03:14:00,
2013-03-25 20:20:00,48.2,42.3,29.98,NNW,327,0.0,17.0,80,0.00,,,0.00,0,Wunderground v.1.15,2013-03-26 03:20:00,
2013-03-25 20:25:00,48.2,42.3,29.98,NNW,327,0.0,17.0,80,0.00,,,0.00,0,Wunderground v.1.15,2013-03-26 03:25:00,
2013-03-25 20:32:00,48.1,42.2,29.97,NNW,327,0.0,17.0,80,0.00,,,0.00,0,Wunderground v.1.15,2013-03-26 03:32:00,
2013-03-25 20:38:00,48.1,42.5,29.97,NNW,348,0.0,17.0,81,0.00,,,0.00,0,Wunderground v.1.15,2013-03-26 03:38:00,
2013-03-25 20:44:00,48.1,42.5,29.97,NNW,348,0.0,17.0,81,0.00,,,0.00,0,Wunderground v.1.15,2013-03-26 03:44:00,
2013-03-25 20:50:00,48.1,42.5,29.97,NNW,348,0.0,17.0,81,0.00,,,0.00,0,Wunderground v.1.15,2013-03-26 03:50:00,
2013-03-25 20:58:00,48.1,42.5,29.96,NNW,348,0.0,17.0,81,0.00,,,0.00,0,Wunderground v.1.15,2013-03-26 03:58:00,
2013-03-25 21:00:00,48.1,42.5,29.97,NNW,348,0.0,2.0,81,0.00,,,0.00,0,Wunderground v.1.15,2013-03-26 04:00:00,
2013-03-25 21:02:00,48.1,42.5,29.97,NNW,348,0.0,2.0,81,0.00,,,0.00,0,Wunderground v.1.15,2013-03-26 04:02:00,
2013-03-25 21:08:00,48.1,42.5,29.97,NNW,348,0.0,2.0,81,0.00,,,0.00,0,Wunderground v.1.15,2013-03-26 04:08:00,
2013-03-25 21:12:00,48.1,42.5,29.97,NNW,348,0.0,2.0,81,0.00,,,0.00,0,Wunderground v.1.15,2013-03-26 04:12:00,
2013-03-25 21:14:00,48.1,42.5,29.97,NNW,348,0.0,2.0,81,0.00,,,0.00,0,Wunderground v.1.15,2013-03-26 04:14:00,
2013-03-25 21:20:00,48.1,42.5,29.97,NNW,348,0.0,2.0,81,0.00,,,0.00,0,Wunderground v.1.15,2013-03-26 04:20:00,
2013-03-25 21:26:00,48.1,42.9,29.97,NNW,348,0.0,2.0,82,0.00,,,0.00,0,Wunderground v.1.15,2013-03-26 04:26:00,
2013-03-25 21:32:00,48.0,42.8,29.96,NNW,348,0.0,2.0,82,0.00,,,0.00,0,Wunderground v.1.15,2013-03-26 04:32:00,
2013-03-25 21:37:00,48.0,42.8,29.95,NNW,348,0.0,2.0,82,0.00,,,0.00,0,Wunderground v.1.15,2013-03-26 04:37:00,
2013-03-25 21:44:00,48.1,42.9,29.96,NNW,344,0.0,3.0,82,0.00,,,0.00,0,Wunderground v.1.15,2013-03-26 04:44:00,
2013-03-25 21:50:00,48.1,43.2,29.97,West,281,2.0,4.0,83,0.00,,,0.00,0,Wunderground v.1.15,2013-03-26 04:50:00,
2013-03-25 21:56:00,48.2,43.3,29.98,West,275,3.0,4.0,83,0.00,,,0.00,0,Wunderground v.1.15,2013-03-26 04:56:00,
2013-03-25 22:02:00,48.3,43.7,29.99,WNW,284,3.0,4.0,84,0.00,,,0.01,0,Wunderground v.1.15,2013-03-26 05:02:00,
2013-03-25 22:08:00,48.3,43.7,29.99,NW,311,4.0,5.0,84,0.00,,,0.01,0,Wunderground v.1.15,2013-03-26 05:08:00,
2013-03-25 22:14:00,48.2,43.6,29.99,WNW,284,2.0,4.0,84,0.00,,,0.01,0,Wunderground v.1.15,2013-03-26 05:14:00,
2013-03-25 22:20:00,48.1,43.5,29.99,West,265,1.0,2.0,84,0.00,,,0.01,0,Wunderground v.1.15,2013-03-26 05:20:00,
2013-03-25 22:26:00,47.8,43.2,30.00,WNW,285,3.0,5.0,84,0.00,,,0.01,0,Wunderground v.1.15,2013-03-26 05:26:00,
2013-03-25 22:32:00,47.7,43.4,30.00,West,279,2.0,2.0,85,0.00,,,0.01,0,Wunderground v.1.15,2013-03-26 05:32:00,
2013-03-25 22:38:00,47.5,43.2,30.00,NW,310,1.0,4.0,85,0.00,,,0.01,0,Wunderground v.1.15,2013-03-26 05:38:00,
2013-03-25 22:44:00,47.4,43.1,30.00,NNW,331,2.0,6.0,85,0.00,,,0.01,0,Wunderground v.1.15,2013-03-26 05:44:00,
2013-03-25 22:50:00,47.3,43.0,30.01,NNW,327,2.0,3.0,85,0.00,,,0.01,0,Wunderground v.1.15,2013-03-26 05:50:00,
2013-03-25 22:56:00,47.1,43.1,30.01,NNW,329,2.0,3.0,86,0.00,,,0.01,0,Wunderground v.1.15,2013-03-26 05:56:00,
2013-03-25 23:01:00,46.9,42.9,30.01,NNW,329,0.0,7.0,86,0.00,,,0.01,0,Wunderground v.1.15,2013-03-26 06:01:00,
2013-03-25 23:08:00,46.8,42.8,30.01,NNW,329,0.0,7.0,86,0.00,,,0.01,0,Wunderground v.1.15,2013-03-26 06:08:00,
2013-03-25 23:14:00,46.7,42.7,30.01,NNW,329,0.0,7.0,86,0.00,,,0.01,0,Wunderground v.1.15,2013-03-26 06:14:00,
2013-03-25 23:20:00,46.5,42.5,30.01,NNW,329,0.0,7.0,86,0.00,,,0.01,0,Wunderground v.1.15,2013-03-26 06:20:00,
2013-03-25 23:26:00,46.3,42.3,30.01,NNW,329,0.0,7.0,86,0.00,,,0.01,0,Wunderground v.1.15,2013-03-26 06:26:00,
2013-03-25 23:32:00,46.1,42.4,30.01,NNW,329,0.0,7.0,87,0.00,,,0.01,0,Wunderground v.1.15,2013-03-26 06:32:00,
2013-03-25 23:38:00,45.9,42.2,30.01,NNW,329,0.0,7.0,87,0.00,,,0.01,0,Wunderground v.1.15,2013-03-26 06:38:00,
2013-03-25 23:44:00,45.8,42.2,30.01,NNW,329,0.0,7.0,87,0.00,,,0.01,0,Wunderground v.1.15,2013-03-26 06:44:00,
2013-03-25 23:50:00,45.7,42.1,30.00,NNW,329,0.0,7.0,87,0.00,,,0.01,0,Wunderground v.1.15,2013-03-26 06:50:00,
2013-03-25 23:56:00,45.6,42.3,30.01,NNW,329,0.0,7.0,88,0.00,,,0.01,0,Wunderground v.1.15,2013-03-26 06:56:00,